Location: La Coruña
(43.3623°N, 8.4115°W)
Time: 05:04:11
(UTC+01:00)

STARLINK-1102 - Pass Details

Date: 18 January 2020
Orbit: 549 x 551 km, 53.0° (Epoch: 28 February)

Event Time Altitude Azimuth Distance (km) Brightness Sun altitude
Rises 20:38:42 0° 277° (W) 2,722 8.5 -23.7°
Reaches altitude 10° 20:41:15 10° 290° (WNW) 1,830 7.1 -24.1°
Enters shadow 20:44:36 25° 344° (NNW) 1,142 5.3 -24.7°
